Regional Weather Roundup
Issued by NWS

Home | Current Version | Previous Version | Graphics & Text | Print | Product List | Glossary On
Versions: 1 2 3 4 5 6 7 8 9 10 11 12 13 14 15 16 17 18 19 20 21 22 23 24 25 26 27 28 29 30 31 32 33 34 35 36 37 38 39 40 41 42 43 44 45 46 47 48 49 50
000
ASUS43 KLSX 041307
RWRMO

WEATHER SUMMARY FOR MISSOURI
NATIONAL WEATHER SERVICE SPRINGFIELD MO
800 AM CDT MON MAY 04 2015

NOTE: "FAIR" INDICATES FEW OR NO CLOUDS BELOW 12,000 FEET WITH NO
       SIGNIFICANT WEATHER AND/OR OBSTRUCTIONS TO VISIBILITY.
       CURRENT SKY AND/OR WEATHER CONDITIONS ARE NOT AVAILABLE FOR
       CHILLICOTHE AND FARMINGTON.

MOZ001>031-035>038-043-044-053-054-041400-
...NORTHERN AND WESTERN MISSOURI...

CITY           SKY/WX    TMP DP  RH WIND       PRES   REMARKS
KANSAS CTY INT CLOUDY    66  57  72 S12       30.00R
KANSAS C DTWN  CLOUDY    68  57  68 SW7       30.00R
LEE`S SUMMIT   CLOUDY    65  56  72 SW12      30.01R
ST JOSEPH      CLOUDY    68  58  70 N5        30.02R
CHILLICOTHE      N/A     65  59  81 SW5       29.99R
KIRKSVILLE     CLOUDY    65  59  81 S14       29.98F

$$
MOZ066>068-077>081-088>096-101>105-041400-
...SOUTHWEST MISSOURI...

CITY           SKY/WX    TMP DP  RH WIND       PRES   REMARKS
SPRINGFIELD    PTSUNNY   67  56  67 S12       30.09R
JOPLIN         CLOUDY    71  55  56 S15G24    30.07R

$$
MOZ032>034-039>042-045>050-055>058-069>072-041400-
...CENTRAL MISSOURI...

CITY           SKY/WX    TMP DP  RH WIND       PRES   REMARKS
COLUMBIA       CLOUDY    65  58  78 S8        30.07R
JEFFERSON CITY PTSUNNY   67  57  70 SE3       30.07R
ROLLA          PTSUNNY   66  57  72 S10       30.08R
SEDALIA        CLOUDY    64  58  80 S9        30.06R
WHITEMAN AFB   PTSUNNY   63  58  86 SW9       30.03R
OSAGE BEACH    MOSUNNY   66  55  68 S5        30.09R

$$
MOZ051-052-059>065-041400-
...EAST CENTRAL MISSOURI...

CITY           SKY/WX    TMP DP  RH WIND       PRES   REMARKS
ST LOUIS INTL  CLOUDY    69  60  73 S6        30.10R
SPIRIT OF STL  CLOUDY    66  60  81 CALM      30.08R
ST CHARLES     CLOUDY    68  60  75 S3        30.08R

$$
MOZ072>076-082>087-097>100-106>115-041400-
...SOUTH CENTRAL AND SOUTHEAST MISSOURI...

CITY           SKY/WX    TMP DP  RH WIND       PRES   REMARKS
CAPE GIRARDEAU PTSUNNY   65  54  67 S6        30.16R
FARMINGTON     CLOUDY    64  55  72 S6        30.17S
POPLAR BLUFF   MOSUNNY   65  56  72 S6        30.15R
WEST PLAINS    PTSUNNY   65  55  70 S5        30.14R

$$



USA.gov is the U.S. government's official web portal to all federal, state and local government web resources and services.